Trail du pays d'Aubel
Trail du pays d'Aubel 29/04/2017 - 22,4 km
Mise à jour le : 12/05/2017 à 21:46
Classement définitif, aucune correction possible
Place Nom Prénom Dossard Temps Vitesse Allure Place. Cat. Catégorie
1 REMACLE OLIVIER 1154 1:26:39 15,51 3:52 1 Séniors
2 WIERTZ XAVIER 4 1:31:59 14,61 4:06 2 Séniors
3 GRENIER LAURENT 1043 1:35:12 14,12 4:15 3 Séniors
4 ORDONEZ MANUEL 1092 1:35:30 14,07 4:15 4 Séniors
5 STOLLENBERG JORDI 622 1:37:37 13,77 4:21 5 Séniors
6 WILLEMET MAXIME 1067 1:38:24 13,66 4:23 6 Séniors
7 CHRISTODOULEAS PATRICK 1086 1:39:21 13,53 4:26 1 Vétérans 2
8 GRIFGNEE CHRISTOPHE 1172 1:39:54 13,45 4:27 7 Séniors
9 LEJEUNE BERNARD 1005 1:39:56 13,45 4:27 1 Vétérans 1
10 CANTELBERG JOHN 1197 1:40:07 13,42 4:28 2 Vétérans 2
11 JACQUINET ERIC 1061 1:40:21 13,39 4:28 8 Séniors
12 MACHIELS STEVEN 1176 1:40:35 13,36 4:29 9 Séniors
13 GIVRON REGIS 1083 1:41:14 13,28 4:31 10 Séniors
14 DORTHU OLIVIER 1038 1:42:59 13,05 4:35 2 Vétérans 1
15 AOUICHA ANTOINE 1173 1:43:21 13,00 4:36 11 Séniors
16 LODEWIJCKX LUC 1098 1:44:31 12,86 4:39 3 Vétérans 2
17 GARCIA FABRICE 1066 1:44:54 12,81 4:41 3 Vétérans 1
18 MUYLKENS THIBAUT 1204 1:45:05 12,79 4:41 12 Séniors
19 DEPAEPE PATRICK 1057 1:45:25 12,75 4:42 4 Vétérans 1
20 MARCHAND PASCAL 1031 1:46:05 12,67 4:44 5 Vétérans 1
21 BONO LAURIE 1101 1:47:04 12,55 4:46 0 F Sans Cat
22 DELCHAMBRE RENAUD 163 1:47:06 12,55 4:46 6 Vétérans 1
23 PALM GUILLAUME 1201 1:47:22 12,52 4:47 13 Séniors
24 GOMEZ XAVIER 1068 1:47:38 12,49 4:48 7 Vétérans 1
25 HACKENS YANNICK 426 1:47:48 12,47 4:48 8 Vétérans 1
26 ANDRES GABY 2 1:48:09 12,43 4:49 1 Ainées 2
27 PERMANE THIERRY 1030 1:49:01 12,33 4:52 9 Vétérans 1
28 DEDRY ANTOINE 1238 1:49:03 12,32 4:52 0 H Sans Cat
29 COLINET STEVE 1175 1:50:02 12,21 4:54 14 Séniors
30 HORTEN JEAN PHILIPPE 1042 1:50:04 12,21 4:54 15 Séniors
31 KREMER JEREMY 1118 1:50:10 12,20 4:55 0 H Sans Cat
32 SELERIN PASCAL 1222 1:50:26 12,17 4:55 16 Séniors
33 HAGELSTEIN CHRISTIAN 1190 1:50:28 12,17 4:55 10 Vétérans 1
34 COUTREZ ALEXANDRE 1214 1:50:31 12,16 4:56 17 Séniors
35 CABAY JEAN-MARC 1167 1:50:44 12,14 4:56 11 Vétérans 1
36 LYMANDT DENNIS 1125 1:51:09 12,09 4:57 12 Vétérans 1
37 HAMACHER MARKUS 1113 1:52:01 12,00 5:00 0 H Sans Cat
38 FRATELLI ANTOINE 1071 1:52:15 11,97 5:00 4 Vétérans 2
39 DEVOLDERE NIKI 1034 1:52:33 11,94 5:01 13 Vétérans 1
40 TOUSSAINT BERTRAND 568 1:53:29 11,84 5:03 18 Séniors
41 DOUVEN THOMAS 245 1:53:41 11,82 5:04 19 Séniors
42 PAPART JULIEN 1090 1:54:08 11,77 5:05 20 Séniors
43 DEROUAUX MICHAEL 1091 1:54:12 11,77 5:05 21 Séniors
44 NIX RAPHAEL 1156 1:54:17 11,76 5:06 22 Séniors
45 ROSILLON CAROLINE 1045 1:54:29 11,74 5:06 1 Dames
46 STANGHERLIN GREGOR 1182 1:54:32 11,73 5:06 14 Vétérans 1
47 BADER REGIS 1234 1:54:56 11,69 5:07 23 Séniors
48 VAN DE VOORT ERIK-JAN 1025 1:55:06 11,68 5:08 5 Vétérans 2
49 RASSART MARC 1049 1:55:33 11,63 5:09 6 Vétérans 2
50 WEUSTEN CEDRIC 444 1:55:47 11,61 5:10 24 Séniors
51 HECQ OLIVIER 1087 1:55:55 11,59 5:10 7 Vétérans 2
52 DECKERS BERNARD 1082 1:56:14 11,56 5:11 15 Vétérans 1
53 GERON DAVID 1088 1:56:21 11,55 5:11 16 Vétérans 1
54 STAS CHRISTIAN 594 1:56:23 11,55 5:11 8 Vétérans 2
55 DEJALLE GAETAN 147 1:56:24 11,54 5:11 25 Séniors
56 ROORDA CHRISTOPHE 1198 1:56:26 11,54 5:11 26 Séniors
57 SMETS FLORENT 1037 1:57:13 11,46 5:14 1 Espoirs Garçons
58 FUDVOYE THIBAUT 1174 1:57:21 11,45 5:14 27 Séniors
59 LODOMEZ OLIVIER 454 1:57:22 11,45 5:14 28 Séniors
60 MARCQ NICOLAS 1203 1:57:40 11,42 5:15 29 Séniors
61 HAPPART GREGORY 1191 1:57:42 11,42 5:15 17 Vétérans 1
62 STEINBUSCH VINCENT 663 1:57:43 11,42 5:15 18 Vétérans 1
63 VIOLLE BENJAMIN 432 1:57:47 11,41 5:15 30 Séniors
64 AERTS DANNY 1062 1:58:12 11,37 5:16 9 Vétérans 2
65 NEVENS CHRISTOPHE 1012 1:58:35 11,33 5:17 19 Vétérans 1
66 TSAGKAS CASSANDRA 1009 1:58:45 11,32 5:18 1 Espoirs Filles
67 GOMZE MICHEL 5 1:58:46 11,32 5:18 10 Vétérans 2
68 WEICKMANS DAVID 684 1:58:48 11,31 5:18 31 Séniors
69 NIJS J-P 1128 1:58:54 11,30 5:18 0 H Sans Cat
70 SCAILLET GEOFFREY 1224 1:58:55 11,30 5:18 32 Séniors
71 JOCKIN GILLES 1193 1:59:01 11,29 5:18 33 Séniors
72 LUCASSEN PHILIPPE 1155 1:59:31 11,24 5:20 20 Vétérans 1
73 SANDRA ALAN 1159 1:59:35 11,24 5:20 34 Séniors
74 MINGUET PIERRE-YVES 1077 1:59:38 11,23 5:20 21 Vétérans 1
75 LAMBOT FREDERIC 389 1:59:46 11,22 5:20 35 Séniors
76 GAROT CHARLES 1108 1:59:58 11,20 5:21 0 H Sans Cat
77 XHONNEUX RENAUD 1097 2:00:12 11,18 5:21 22 Vétérans 1
78 GRUMIAUX THIERRY 1199 2:00:33 11,15 5:22 23 Vétérans 1
79 DAVREUX BENOIT 1177 2:00:38 11,14 5:23 24 Vétérans 1
80 VAN BROEKHOVEN ERWIN 1032 2:00:51 11,12 5:23 36 Séniors
81 VERCRUYSSE PIM 1223 2:00:53 11,12 5:23 25 Vétérans 1
82 BINKERT MARC 1016 2:01:07 11,10 5:24 11 Vétérans 2
83 VAN DER SANGEN KARIN 1095 2:01:11 11,09 5:24 2 Dames
84 GOMBOSO MARC 1110 2:01:43 11,04 5:26 1 Vétérans 3
85 VANDERLINDEN DENIS 1144 2:02:06 11,01 5:27 0 H Sans Cat
86 DENDAL DIDIER 1001 2:02:07 11,00 5:27 12 Vétérans 2
87 VERHEES CEDRIC 1210 2:02:32 10,97 5:28 26 Vétérans 1
88 DELLEUR ELODIE 1060 2:02:55 10,93 5:29 3 Dames
89 NIZET REMY 1209 2:03:04 10,92 5:29 27 Vétérans 1
90 KEDZIERSKI BENOIT 1116 2:03:06 10,92 5:29 0 H Sans Cat
91 KOOLS MARTIN 1004 2:03:07 10,92 5:29 37 Séniors
92 COLSON DAVID 1183 2:03:26 10,89 5:30 38 Séniors
93 VAN DER ESSEN TOM 1048 2:03:28 10,88 5:30 13 Vétérans 2
94 LEMAIRE CEDRIC 440 2:03:35 10,87 5:31 39 Séniors
95 REGA ALAIN 1130 2:03:40 10,87 5:31 0 H Sans Cat
96 SNACKERS FRANCIS 1075 2:03:42 10,86 5:31 14 Vétérans 2
97 HARDY MARC 437 2:04:29 10,80 5:33 28 Vétérans 1
98 VAN DEN REYN MICHAEL 1022 2:04:38 10,78 5:33 40 Séniors
99 MINGUET OLIVIER 1076 2:04:44 10,77 5:34 29 Vétérans 1
100 VINTCENT JEAN-PAUL 1145 2:04:50 10,77 5:34 0 H Sans Cat
101 LEVAUX NOEL 1229 2:05:05 10,74 5:35 30 Vétérans 1
102 HANSSEN ROLAND 1015 2:05:07 10,74 5:35 15 Vétérans 2
103 FAFCHAMPS CLAUDINE 1014 2:05:08 10,74 5:35 2 Ainées 2
104 PIRENNE DAVID 539 2:05:32 10,71 5:36 31 Vétérans 1
105 VANDERMEEREN KRISTOF 1160 2:06:29 10,62 5:38 41 Séniors
106 DUMONT JEAN 1215 2:06:43 10,61 5:39 2 Espoirs Garçons
107 DESADELEER JEAN-FRANÇOIS 1104 2:06:47 10,60 5:39 0 H Sans Cat
108 DENOOZ AXEL 1020 2:06:51 10,59 5:39 32 Vétérans 1
109 LIEGEOIS MANON 449 2:06:55 10,59 5:39 4 Dames
110 SCHMETS LAURENT 1000 2:07:28 10,54 5:41 42 Séniors
111 NYSSEN PIERRE 723 2:07:30 10,54 5:41 33 Vétérans 1
112 VERBOORD JOERI 1219 2:07:42 10,52 5:42 34 Vétérans 1
113 DEDRY THOMAS 1237 2:08:13 10,48 5:43 43 Séniors
114 LAMING MARY 1119 2:08:17 10,48 5:43 0 F Sans Cat
115 HARDY GREGORY 430 2:08:32 10,46 5:44 44 Séniors
116 LEJEUNE DAVID 553 2:08:33 10,45 5:44 35 Vétérans 1
117 THONNARD MARIE HELENE 1036 2:08:51 10,43 5:45 3 Ainées 2
118 SEVAR JEAN-FRANCOIS 1054 2:08:54 10,43 5:45 36 Vétérans 1
119 KENNIS DOMINIQUE 1093 2:08:55 10,42 5:45 16 Vétérans 2
120 DE VOS BERRY 1218 2:08:57 10,42 5:45 37 Vétérans 1
121 REMAN BRUNO 1131 2:08:59 10,42 5:45 0 H Sans Cat
122 DAWANS BASTIEN 1181 2:09:30 10,38 5:46 45 Séniors
123 DUMOULIN PHILIPPE 1074 2:10:00 10,34 5:48 17 Vétérans 2
124 BROOKSBANK LARA 1186 2:10:17 10,32 5:48 5 Dames
125 BROOKSBANK WILLIAM 1187 2:10:19 10,31 5:49 18 Vétérans 2
126 GHEURY PHILIPPE 1053 2:10:26 10,30 5:49 38 Vétérans 1
127 COBBEN SYLVAIN 113 2:10:51 10,27 5:50 46 Séniors
128 GILET ARNAUD 285 2:10:53 10,27 5:50 39 Vétérans 1
129 CORNET CAROLINE 1080 2:11:12 10,24 5:51 1 Ainées 1
130 VON AGRIS CHRISTA 1146 2:11:14 10,24 5:51 0 F Sans Cat
131 CHAPELIER BOB 1161 2:11:20 10,23 5:51 19 Vétérans 2
132 ERNST SAMUEL 1105 2:11:35 10,21 5:52 0 H Sans Cat
133 HUBERT HENRI 1114 2:11:47 10,20 5:53 0 H Sans Cat
134 LAURYSSEN FILIP 1121 2:11:50 10,19 5:53 0 H Sans Cat
135 SCHYNS DAVID 1205 2:12:17 10,16 5:54 47 Séniors
136 ALTY PETER 1099 2:12:26 10,15 5:54 0 H Sans Cat
137 DELCOMINETTE ANNE 1056 2:12:34 10,14 5:55 4 Ainées 2
138 LEPLAT DAMIEN 1063 2:12:41 10,13 5:55 48 Séniors
139 DORTHU MICHEL 1162 2:12:45 10,12 5:55 20 Vétérans 2
140 WUIDART CHRISTEL 1207 2:12:49 10,12 5:55 2 Ainées 1
141 CIMINO ARMANDO 1221 2:12:51 10,12 5:55 49 Séniors
142 COLSON CHARLES 1202 2:12:56 10,11 5:56 2 Vétérans 3
143 BUKENS BERNARD 1072 2:13:04 10,10 5:56 40 Vétérans 1
144 GREGOIRE BERNARD 1058 2:13:13 10,09 5:56 41 Vétérans 1
145 TASSET CHRISTIAN 1136 2:13:19 10,08 5:57 0 H Sans Cat
146 DONY PHILIPPE 273 2:13:35 10,06 5:57 42 Vétérans 1
147 BOGAR TONY 612 2:13:42 10,05 5:58 21 Vétérans 2
148 COTTON SÉBASTIEN 1103 2:14:23 10,00 5:59 0 H Sans Cat
149 SCHYNS EGIDE 1134 2:14:24 10,00 6:00 0 H Sans Cat
150 SIMONSE EVA 1033 2:15:06 9,95 6:01 6 Dames
151 DEBATY JULIE 492 2:15:12 9,94 6:02 3 Ainées 1
152 LEMAIRE GUILLAUME 497 2:15:13 9,94 6:02 50 Séniors
153 FRANCKEN JORIS 1107 2:15:15 9,94 6:02 0 H Sans Cat
154 OLIVIER JEAN-CHRISTOPHE 1189 2:15:38 9,91 6:03 43 Vétérans 1
155 DIRIX LODE 1044 2:15:44 9,90 6:03 22 Vétérans 2
156 JUNGBLUTH RAYMOND 1115 2:15:58 9,88 6:04 0 H Sans Cat
157 CHARPENTIER RACHEL 1027 2:16:00 9,88 6:04 4 Ainées 1
158 STASSART VINCENT 1007 2:16:04 9,88 6:04 51 Séniors
159 CAMPION SYLVAIN 1212 2:16:22 9,86 6:05 23 Vétérans 2
160 PONCIN CHRISTIAN 1019 2:16:28 9,85 6:05 24 Vétérans 2
161 WYZEN THIERRY 1208 2:16:58 9,81 6:06 44 Vétérans 1
162 LOMBARDI ROBERTO 1123 2:17:02 9,81 6:07 0 H Sans Cat
163 LOUVIGNY YANNICK 1089 2:17:08 9,80 6:07 52 Séniors
164 DEMANDT PIETER 1225 2:17:31 9,77 6:08 53 Séniors
165 KRANNEN MICHEL 1069 2:17:44 9,76 6:08 25 Vétérans 2
166 MONSEZ CHRISTINE 1184 2:17:53 9,75 6:09 5 Ainées 1
167 MEYNS CHRISTOPHE 1185 2:17:56 9,74 6:09 45 Vétérans 1
168 HENROTTE THIERRY 1227 2:18:10 9,73 6:10 26 Vétérans 2
169 DORTU CHRISTIAN 1070 2:18:27 9,71 6:10 27 Vétérans 2
170 DECKERS JEAN LOUIS 1008 2:18:54 9,68 6:12 46 Vétérans 1
171 URLING PIERRE YVES 1168 2:18:56 9,67 6:12 54 Séniors
172 WILLEMS DIDIER 1149 2:18:57 9,67 6:12 0 H Sans Cat
173 PIRENNE MARC 1196 2:19:43 9,62 6:14 47 Vétérans 1
174 PARTHOENS MARCEL 1180 2:19:45 9,62 6:14 55 Séniors
175 VALENTI DAVID 1006 2:19:55 9,60 6:14 48 Vétérans 1
176 KEIL YVES 509 2:20:03 9,60 6:15 49 Vétérans 1
177 DINON DOMINIQUE 1011 2:20:29 9,57 6:16 28 Vétérans 2
178 FINCK ANDY 1018 2:20:47 9,55 6:17 50 Vétérans 1
179 VAN DEN BUSSCHE DENIS 1138 2:20:50 9,54 6:17 0 H Sans Cat
180 STEUKERS KORNEEL 1135 2:20:52 9,54 6:17 0 H Sans Cat
181 CENGIAROTTI DARIO 1064 2:21:04 9,53 6:17 3 Vétérans 3
182 KROONE JOHAN 1047 2:21:11 9,52 6:18 56 Séniors
183 BELLEMANS MICHAELA 1100 2:21:13 9,52 6:18 0 F Sans Cat
184 LEKEU JULIE 1194 2:21:37 9,49 6:19 7 Dames
185 DELARBRE PATRICK 1206 2:21:42 9,48 6:19 51 Vétérans 1
186 DE MARCO ERIC 205 2:21:51 9,47 6:19 52 Vétérans 1
187 LUYCKX JACQUES 1124 2:22:16 9,45 6:21 0 H Sans Cat
188 KRONT ROY 1239 2:22:20 9,44 6:21 53 Vétérans 1
189 HADJIDIMITRIOU STELIO 1112 2:23:01 9,40 6:23 0 H Sans Cat
190 MONAMI SERGE 1084 2:23:25 9,37 6:24 29 Vétérans 2
191 DEDERIX DANIEL 1073 2:23:57 9,34 6:25 30 Vétérans 2
192 STEVART MICKAEL 1216 2:24:06 9,33 6:26 57 Séniors
193 ROGISTER FRANCIS 371 2:24:16 9,32 6:26 54 Vétérans 1
194 BAGUETTE CAROLINE 1094 2:24:30 9,30 6:27 6 Ainées 1
195 COLSON MARINE 1213 2:24:34 9,30 6:27 8 Dames
196 SOMJA JEAN PHILIPPE 532 2:24:48 9,28 6:27 58 Séniors
197 RAUSIN CÉCILE 1129 2:25:13 9,25 6:29 0 F Sans Cat
198 ZYCH JONH 1152 2:25:15 9,25 6:29 0 H Sans Cat
199 SOUGNEZ JEREMY 1235 2:25:33 9,23 6:29 59 Séniors
200 DODEMONT HERVE 1052 2:25:35 9,23 6:29 60 Séniors
201 DEMOLIN GAUTIER 1026 2:26:34 9,17 6:32 55 Vétérans 1
202 SAUVEUR ALAIN 1035 2:26:37 9,17 6:32 31 Vétérans 2
203 VANDEPUTTE FRANK (1) 1142 2:26:52 9,15 6:33 0 H Sans Cat
204 VAN EYNDHOVEN MARIE-JOSÉE 1143 2:26:53 9,15 6:33 0 F Sans Cat
205 MASSART GERALDINE 1217 2:27:22 9,12 6:34 7 Ainées 1
206 WIRTZ CHRISTOPHE 1151 2:28:11 9,07 6:36 0 H Sans Cat
207 HORTEN JEAN MICHEL 1188 2:28:22 9,06 6:37 56 Vétérans 1
208 ENGELEN BENJAMIN 1096 2:28:25 9,06 6:37 61 Séniors
209 GLAUDE VÉRONIQUE 1109 2:28:42 9,04 6:38 0 F Sans Cat
210 JACOB STEPHANIE 1003 2:29:11 9,01 6:39 9 Dames
211 ERNST ANDRE 265 2:29:48 8,97 6:41 32 Vétérans 2
212 MUNOS CÉLINE 1127 2:29:51 8,97 6:41 0 F Sans Cat
213 CHUDYBA JEAN-MARIE 1102 2:29:52 8,97 6:41 0 H Sans Cat
214 CANEVE CHRISTOPHE 1028 2:31:02 8,90 6:44 62 Séniors
215 LEONARD CHRISTELLE 1081 2:31:21 8,88 6:45 8 Ainées 1
216 THOMAS XAVIER 1178 2:32:05 8,84 6:47 57 Vétérans 1
217 SIMON GIL 1179 2:32:08 8,83 6:47 58 Vétérans 1
218 MEINGUET LAURENT 610 2:32:11 8,83 6:47 59 Vétérans 1
219 FAFCHAMPS CHRISTINE 1078 2:32:14 8,83 6:47 5 Ainées 2
220 DEGDUWES BENOIT 1013 2:32:15 8,83 6:47 60 Vétérans 1
221 LAOUREUX QUENTIN 1120 2:32:27 8,82 6:48 0 H Sans Cat
222 SEMPOT LAURENT 1200 2:32:38 8,81 6:48 63 Séniors
223 DEPALLE PATRICK 1226 2:33:04 8,78 6:50 61 Vétérans 1
224 LUTGEN MICHEL 1236 2:33:11 8,77 6:50 62 Vétérans 1
225 MEYERS LUC 1046 2:33:13 8,77 6:50 33 Vétérans 2
226 LEKEU PIERRE 1195 2:33:49 8,74 6:52 64 Séniors
227 LAMBERT CHANTAL 1163 2:34:26 8,70 6:53 9 Ainées 1
228 CHOINACKI OLIVIER 1228 2:35:24 8,65 6:56 63 Vétérans 1
229 SIMONIS AMAURY 1211 2:35:34 8,64 6:56 65 Séniors
230 FABRY LEON 1002 2:35:38 8,64 6:56 4 Vétérans 3
231 WILLEMS JOSIANNE 1150 2:35:48 8,63 6:57 0 F Sans Cat
232 DELHEZ MARIE ANNE 1166 2:35:51 8,62 6:57 6 Ainées 2
233 GODART AUDREY 1164 2:36:07 8,61 6:58 10 Dames
234 BECKERS ANNE FRANCOISE 1165 2:36:10 8,61 6:58 10 Ainées 1
235 HOCHSTENBACH SABINE 255 2:36:15 8,60 6:58 11 Ainées 1
236 THIRION ALAIN 1137 2:36:28 8,59 6:59 0 H Sans Cat
237 DOCHAIN THUYEN 1021 2:37:15 8,55 7:01 0 F Sans Cat
238 MEURICE ISABELLE 1017 2:37:18 8,54 7:01 7 Ainées 2
239 BOSCO VALERIE 78 2:39:31 8,42 7:07 12 Ainées 1
240 FRISEE MARIETTE 217 2:39:35 8,42 7:07 1 Ainées 3
241 GOURDANGE XAVIER 1023 2:39:39 8,42 7:07 64 Vétérans 1
242 DEFRÈRE DENIS 1220 2:40:29 8,37 7:09 66 Séniors
243 PIROTTON DIDIER 1024 2:41:51 8,30 7:13 65 Vétérans 1
244 MOES DOMINIQUE 1171 2:44:05 8,19 7:19 8 Ainées 2
245 WAGNER FLAVIE 1147 2:44:54 8,15 7:21 0 F Sans Cat
246 MASSET JULIEN 1126 2:44:59 8,15 7:21 0 H Sans Cat
247 PINCKAERS BRIGITTE 1170 2:45:19 8,13 7:22 2 Ainées 3
248 LOPEZ CEPSO 1169 2:45:24 8,12 7:23 34 Vétérans 2
249 LEGROS CORINE 1029 2:45:28 8,12 7:23 13 Ainées 1
250 EYEN CLAIRE 1106 2:46:10 8,09 7:25 0 F Sans Cat
251 NYSSEN EMILIE 1041 2:46:27 8,07 7:25 11 Dames
252 CRUTZEN ISABELLE 1079 2:46:36 8,07 7:26 14 Ainées 1
253 PAROTTE AURORE 1040 2:47:05 8,04 7:27 12 Dames
254 BRONSART AUDREY 1039 2:48:19 7,98 7:30 13 Dames
255 PIRLOT BERNARD 541 2:48:23 7,98 7:31 67 Séniors
256 WARGE EDDY 1148 2:48:39 7,97 7:31 0 H Sans Cat
257 WEBER CYNTHIA 1233 2:48:53 7,96 7:32 15 Ainées 1
258 BAUDOUX STEPHANE 1232 2:48:56 7,96 7:32 66 Vétérans 1
259 COLIN SOPHIE 1230 2:50:06 7,90 7:35 16 Ainées 1
260 DELHEZ BENOIT 1231 2:50:09 7,90 7:35 35 Vétérans 2
261 BOURGARD GREGORY 1010 2:52:10 7,81 7:41 68 Séniors
262 LEYENS PATRICK 1192 2:52:35 7,79 7:42 67 Vétérans 1
263 VAN LAETHEM GABRIELLE 1140 2:57:11 7,59 7:54 0 F Sans Cat
264 VAN LAETHEM CÉCILE 1141 2:57:13 7,58 7:54 0 F Sans Cat
265 JACOB JOEL 335 3:00:24 7,45 8:03 68 Vétérans 1
266 CHABOT MATHIEU 1157 3:00:25 7,45 8:03 69 Séniors
267 CULOT GREGORY 1158 3:00:27 7,45 8:03 70 Séniors
268 THURION PHILIPPE 1085 3:02:10 7,38 8:07 69 Vétérans 1
269 CALIFICE HUBERTE 128 3:02:50 7,35 8:09 3 Ainées 3
270 RIFFON MAGALI 1132 3:02:51 7,35 8:09 0 F Sans Cat
271 GRONDAL CHRISTINE 1111 3:05:23 7,25 8:16 0 F Sans Cat
272 JURIN LIDIA 1051 3:18:50 6,76 8:52 17 Ainées 1
273 LIBOTTE VIRGINIE 1050 3:19:17 6,74 8:53 18 Ainées 1